NORTHEAST SUFFOLK  -  Winter Weather Advisory Winter Weather Advisory        NORTHERN NASSAU  -  Winter Weather Advisory Winter Weather Advisory        NORTHWEST SUFFOLK  -  Winter Weather Advisory Winter Weather Advisory        SOUTHEAST SUFFOLK  -  Winter Weather Advisory Winter Weather Advisory        SOUTHERN NASSAU  -  Winter Weather Advisory Winter Weather Advisory        SOUTHWEST SUFFOLK  -  Winter Weather Advisory Winter Weather Advisory      

Active alerts

Northern Nassau
  Details for Northern Nassau Winter Weather Advisory
Southern Nassau
  Details for Southern Nassau Winter Weather Advisory
Northwest Suffolk
  Details for Northwest Suffolk Winter Weather Advisory
Southwest Suffolk
  Details for Southwest Suffolk Winter Weather Advisory
Northeast Suffolk
  Details for Northeast Suffolk Winter Weather Advisory
Southeast Suffolk
  Details for Southeast Suffolk Winter Weather Advisory


WXM80 ListenWXM80 Stop

You find our weather info also at:

UK Metoffice

WeatherCloud

Weather Underground

Northeastern Weather Network

AWEKAS

Citizen Weather Observer Program (CWOP)

HAMweather, WeatherForYou, PWS Weather


Weather Underground History page Text

Daily Summary for March 30, 2017 Units:  Both    English   Metric
« Previous Day
Next Day »
Daily Weekly Monthly Yearly Custom
  High: Low: Average:
Temperature: 54.0 °F /  12.2 °C 36.5 °F /  2.5 °C 43.8 °F /  6.6 °C
Dew Point: 35.7 °F /  2.1 °C 26.6 °F /  -3 °C 30.1 °F /  -1.1 °C
Humidity: 78 % 36 % 60 %
Wind Speed: 8.9 mph /  14.3 km/h - 2.8 mph /  4.5 km/h
Wind Gust: 13.8 mph /  22.2 km/h - -
Wind:- - SSW
Pressure: 30.25 in /  1024.3 hPa 30.08 in /  1018.5 hPa -
Precipitation: 0.00 in /  0 mm    
Historical Graphs
 
 
Tabular Data for March 30, 2017
Time Temperature Dew Point Pressure Wind Wind Speed Wind Gust Humidity Rainfall Rate (Hourly)
00:01 41.0 °F /  5 °C 28.6 °F /  -1.9 °C 30.20 in /  1022.6 hPa NNE 8.4 mph /  13.5 km/h 13.8 mph /  22.2 km/h 61 % 0.00 in /  0 mm
00:06 41.0 °F /  5 °C 28.2 °F /  -2.1 °C 30.20 in /  1022.6 hPa NE 8.9 mph /  14.3 km/h 11.5 mph /  18.5 km/h 60 % 0.00 in /  0 mm
00:11 41.0 °F /  5 °C 28.2 °F /  -2.1 °C 30.21 in /  1022.9 hPa NNE 5.8 mph /  9.3 km/h 9.2 mph /  14.8 km/h 60 % 0.00 in /  0 mm
00:16 41.0 °F /  5 °C 29.0 °F /  -1.7 °C 30.21 in /  1022.9 hPa NNE 3.4 mph /  5.5 km/h 5.8 mph /  9.3 km/h 62 % 0.00 in /  0 mm
00:21 40.9 °F /  4.9 °C 29.3 °F /  -1.5 °C 30.21 in /  1022.9 hPa NE 3.0 mph /  4.8 km/h 6.9 mph /  11.1 km/h 63 % 0.00 in /  0 mm
00:26 40.8 °F /  4.9 °C 29.6 °F /  -1.3 °C 30.21 in /  1022.9 hPa NNE 5.9 mph /  9.5 km/h 8.1 mph /  13 km/h 64 % 0.00 in /  0 mm
00:31 40.6 °F /  4.8 °C 28.6 °F /  -1.9 °C 30.21 in /  1022.9 hPa NNE 6.5 mph /  10.5 km/h 10.4 mph /  16.7 km/h 62 % 0.00 in /  0 mm
00:36 40.5 °F /  4.7 °C 28.5 °F /  -1.9 °C 30.21 in /  1022.9 hPa North 3.8 mph /  6.1 km/h 10.4 mph /  16.7 km/h 62 % 0.00 in /  0 mm
00:41 40.5 °F /  4.7 °C 29.3 °F /  -1.5 °C 30.21 in /  1022.9 hPa NE 5.1 mph /  8.2 km/h 5.8 mph /  9.3 km/h 64 % 0.00 in /  0 mm
00:46 40.4 °F /  4.7 °C 29.6 °F /  -1.3 °C 30.21 in /  1022.9 hPa NNE 3.3 mph /  5.3 km/h 5.8 mph /  9.3 km/h 65 % 0.00 in /  0 mm
00:51 40.3 °F /  4.6 °C 29.5 °F /  -1.4 °C 30.20 in /  1022.6 hPa NNE 4.2 mph /  6.8 km/h 5.0 mph /  8 km/h 65 % 0.00 in /  0 mm
00:56 40.2 °F /  4.6 °C 29.7 °F /  -1.3 °C 30.19 in /  1022.2 hPa NNE 5.1 mph /  8.2 km/h 6.9 mph /  11.1 km/h 66 % 0.00 in /  0 mm
01:01 40.0 °F /  4.4 °C 29.9 °F /  -1.2 °C 30.19 in /  1022.2 hPa NNE 4.8 mph /  7.7 km/h 6.9 mph /  11.1 km/h 67 % 0.00 in /  0 mm
01:06 39.9 °F /  4.4 °C 29.8 °F /  -1.2 °C 30.19 in /  1022.2 hPa NE 0.7 mph /  1.1 km/h 3.5 mph /  5.6 km/h 67 % 0.00 in /  0 mm
01:12 39.8 °F /  4.3 °C 30.1 °F /  -1.1 °C 30.19 in /  1022.2 hPa NE 2.3 mph /  3.7 km/h 3.5 mph /  5.6 km/h 68 % 0.00 in /  0 mm
01:17 39.7 °F /  4.3 °C 30.4 °F /  -0.9 °C 30.20 in /  1022.6 hPa NE 2.6 mph /  4.2 km/h 3.5 mph /  5.6 km/h 69 % 0.00 in /  0 mm
01:22 39.6 °F /  4.2 °C 30.6 °F /  -0.8 °C 30.20 in /  1022.6 hPa NNE 2.1 mph /  3.4 km/h 4.0 mph /  6.4 km/h 70 % 0.00 in /  0 mm
01:27 39.4 °F /  4.1 °C 30.4 °F /  -0.9 °C 30.20 in /  1022.6 hPa North 0.2 mph /  0.3 km/h 2.3 mph /  3.7 km/h 70 % 0.00 in /  0 mm
01:32 39.3 °F /  4.1 °C 30.0 °F /  -1.1 °C 30.20 in /  1022.6 hPa North 0.1 mph /  0.2 km/h 1.2 mph /  1.9 km/h 69 % 0.00 in /  0 mm
01:37 39.1 °F /  3.9 °C 30.1 °F /  -1.1 °C 30.19 in /  1022.2 hPa North 2.1 mph /  3.4 km/h 3.5 mph /  5.6 km/h 70 % 0.00 in /  0 mm
01:42 38.9 °F /  3.8 °C 30.3 °F /  -0.9 °C 30.18 in /  1021.9 hPa North 1.9 mph /  3.1 km/h 4.6 mph /  7.4 km/h 71 % 0.00 in /  0 mm
01:47 38.8 °F /  3.8 °C 30.2 °F /  -1 °C 30.19 in /  1022.2 hPa Calm   1.2 mph /  1.9 km/h 71 % 0.00 in /  0 mm
01:52 38.5 °F /  3.6 °C 29.9 °F /  -1.2 °C 30.19 in /  1022.2 hPa NE 0.1 mph /  0.2 km/h 1.2 mph /  1.9 km/h 71 % 0.00 in /  0 mm
01:57 38.4 °F /  3.6 °C 30.2 °F /  -1 °C 30.18 in /  1021.9 hPa NE 1.3 mph /  2.1 km/h 3.5 mph /  5.6 km/h 72 % 0.00 in /  0 mm
02:02 38.3 °F /  3.5 °C 30.4 °F /  -0.9 °C 30.18 in /  1021.9 hPa NNW 2.4 mph /  3.9 km/h 3.5 mph /  5.6 km/h 73 % 0.00 in /  0 mm
02:07 38.1 °F /  3.4 °C 30.5 °F /  -0.8 °C 30.18 in /  1021.9 hPa NNE 2.6 mph /  4.2 km/h 5.0 mph /  8 km/h 74 % 0.00 in /  0 mm
02:12 38.0 °F /  3.3 °C 29.8 °F /  -1.2 °C 30.18 in /  1021.9 hPa North 2.2 mph /  3.5 km/h 4.6 mph /  7.4 km/h 72 % 0.00 in /  0 mm
02:17 37.9 °F /  3.3 °C 29.7 °F /  -1.3 °C 30.18 in /  1021.9 hPa North 0.9 mph /  1.4 km/h 2.3 mph /  3.7 km/h 72 % 0.00 in /  0 mm
02:22 37.9 °F /  3.3 °C 30.0 °F /  -1.1 °C 30.17 in /  1021.6 hPa North 1.9 mph /  3.1 km/h 4.6 mph /  7.4 km/h 73 % 0.00 in /  0 mm
02:27 37.8 °F /  3.2 °C 29.9 °F /  -1.2 °C 30.17 in /  1021.6 hPa North 1.0 mph /  1.6 km/h 5.0 mph /  8 km/h 73 % 0.00 in /  0 mm
02:32 37.8 °F /  3.2 °C 29.6 °F /  -1.3 °C 30.17 in /  1021.6 hPa Calm   4.0 mph /  6.4 km/h 72 % 0.00 in /  0 mm
02:37 37.8 °F /  3.2 °C 29.9 °F /  -1.2 °C 30.17 in /  1021.6 hPa NNW 0.7 mph /  1.1 km/h 2.3 mph /  3.7 km/h 73 % 0.00 in /  0 mm
02:42 37.7 °F /  3.2 °C 29.8 °F /  -1.2 °C 30.17 in /  1021.6 hPa North 3.0 mph /  4.8 km/h 4.6 mph /  7.4 km/h 73 % 0.00 in /  0 mm
02:47 37.7 °F /  3.2 °C 29.5 °F /  -1.4 °C 30.17 in /  1021.6 hPa NNE 3.9 mph /  6.3 km/h 7.0 mph /  11.3 km/h 72 % 0.00 in /  0 mm
02:52 37.7 °F /  3.2 °C 29.1 °F /  -1.6 °C 30.16 in /  1021.2 hPa NNE 3.6 mph /  5.8 km/h 5.8 mph /  9.3 km/h 71 % 0.00 in /  0 mm
02:57 37.7 °F /  3.2 °C 29.1 °F /  -1.6 °C 30.17 in /  1021.6 hPa NNE 2.5 mph /  4 km/h 4.6 mph /  7.4 km/h 71 % 0.00 in /  0 mm
03:02 37.6 °F /  3.1 °C 29.0 °F /  -1.7 °C 30.17 in /  1021.6 hPa North 3.0 mph /  4.8 km/h 7.0 mph /  11.3 km/h 71 % 0.00 in /  0 mm
03:07 37.6 °F /  3.1 °C 29.4 °F /  -1.4 °C 30.16 in /  1021.2 hPa North 1.0 mph /  1.6 km/h 3.0 mph /  4.8 km/h 72 % 0.00 in /  0 mm
03:12 37.6 °F /  3.1 °C 29.7 °F /  -1.3 °C 30.17 in /  1021.6 hPa Calm   6.0 mph /  9.7 km/h 73 % 0.00 in /  0 mm
03:17 37.6 °F /  3.1 °C 29.7 °F /  -1.3 °C 30.17 in /  1021.6 hPa NW 1.0 mph /  1.6 km/h 2.0 mph /  3.2 km/h 73 % 0.00 in /  0 mm
03:22 37.5 °F /  3.1 °C 29.2 °F /  -1.6 °C 30.17 in /  1021.6 hPa NNW 2.0 mph /  3.2 km/h 6.0 mph /  9.7 km/h 72 % 0.00 in /  0 mm
03:27 37.4 °F /  3 °C 29.2 °F /  -1.6 °C 30.16 in /  1021.2 hPa North 1.0 mph /  1.6 km/h 6.0 mph /  9.7 km/h 72 % 0.00 in /  0 mm
03:32 37.3 °F /  2.9 °C 29.1 °F /  -1.6 °C 30.16 in /  1021.2 hPa North 1.0 mph /  1.6 km/h 3.0 mph /  4.8 km/h 72 % 0.00 in /  0 mm
03:37 37.3 °F /  2.9 °C 29.1 °F /  -1.6 °C 30.17 in /  1021.6 hPa NNE 0.2 mph /  0.3 km/h 1.2 mph /  1.9 km/h 72 % 0.00 in /  0 mm
03:42 37.3 °F /  2.9 °C 29.1 °F /  -1.6 °C 30.17 in /  1021.6 hPa NNE 1.1 mph /  1.8 km/h 3.5 mph /  5.6 km/h 72 % 0.00 in /  0 mm
03:47 37.2 °F /  2.9 °C 29.3 °F /  -1.5 °C 30.17 in /  1021.6 hPa North 1.5 mph /  2.4 km/h 3.5 mph /  5.6 km/h 73 % 0.00 in /  0 mm
03:52 37.1 °F /  2.8 °C 29.2 °F /  -1.6 °C 30.17 in /  1021.6 hPa NNW 1.2 mph /  1.9 km/h 2.3 mph /  3.7 km/h 73 % 0.00 in /  0 mm
03:57 37.1 °F /  2.8 °C 29.2 °F /  -1.6 °C 30.18 in /  1021.9 hPa North 0.5 mph /  0.8 km/h 2.3 mph /  3.7 km/h 73 % 0.00 in /  0 mm
04:02 37.0 °F /  2.8 °C 28.8 °F /  -1.8 °C 30.18 in /  1021.9 hPa NNW 1.0 mph /  1.6 km/h 5.8 mph /  9.3 km/h 72 % 0.00 in /  0 mm
04:07 37.0 °F /  2.8 °C 28.5 °F /  -1.9 °C 30.18 in /  1021.9 hPa North 4.6 mph /  7.4 km/h 9.0 mph /  14.5 km/h 71 % 0.00 in /  0 mm
04:12 37.0 °F /  2.8 °C 28.5 °F /  -1.9 °C 30.18 in /  1021.9 hPa NE 3.1 mph /  5 km/h 5.0 mph /  8 km/h 71 % 0.00 in /  0 mm
04:17 37.0 °F /  2.8 °C 28.5 °F /  -1.9 °C 30.19 in /  1022.2 hPa NNW 0.6 mph /  1 km/h 3.5 mph /  5.6 km/h 71 % 0.00 in /  0 mm
04:22 37.0 °F /  2.8 °C 28.8 °F /  -1.8 °C 30.19 in /  1022.2 hPa NW 3.0 mph /  4.8 km/h 5.0 mph /  8 km/h 72 % 0.00 in /  0 mm
04:23 37.0 °F /  2.8 °C 28.5 °F /  -1.9 °C 30.19 in /  1022.2 hPa NW 2.4 mph /  3.9 km/h 4.6 mph /  7.4 km/h 71 % 0.00 in /  0 mm
04:28 37.0 °F /  2.8 °C 28.8 °F /  -1.8 °C 30.19 in /  1022.2 hPa NW 2.3 mph /  3.7 km/h 4.0 mph /  6.4 km/h 72 % 0.00 in /  0 mm
04:33 37.0 °F /  2.8 °C 29.1 °F /  -1.6 °C 30.19 in /  1022.2 hPa WNW 3.1 mph /  5 km/h 5.8 mph /  9.3 km/h 73 % 0.00 in /  0 mm
04:38 37.0 °F /  2.8 °C 29.1 °F /  -1.6 °C 30.19 in /  1022.2 hPa NW 1.6 mph /  2.6 km/h 5.0 mph /  8 km/h 73 % 0.00 in /  0 mm
04:44 36.9 °F /  2.7 °C 29.1 °F /  -1.6 °C 30.19 in /  1022.2 hPa NW 1.6 mph /  2.6 km/h 4.6 mph /  7.4 km/h 73 % 0.00 in /  0 mm
04:49 36.9 °F /  2.7 °C 29.1 °F /  -1.6 °C 30.19 in /  1022.2 hPa NW 2.4 mph /  3.9 km/h 5.8 mph /  9.3 km/h 73 % 0.00 in /  0 mm
04:54 36.9 °F /  2.7 °C 29.1 °F /  -1.6 °C 30.20 in /  1022.6 hPa NW 2.7 mph /  4.3 km/h 3.5 mph /  5.6 km/h 73 % 0.00 in /  0 mm
04:59 36.8 °F /  2.7 °C 29.0 °F /  -1.7 °C 30.20 in /  1022.6 hPa NW 2.0 mph /  3.2 km/h 3.5 mph /  5.6 km/h 73 % 0.00 in /  0 mm
05:04 36.8 °F /  2.7 °C 28.6 °F /  -1.9 °C 30.20 in /  1022.6 hPa WNW 2.8 mph /  4.5 km/h 6.0 mph /  9.7 km/h 72 % 0.00 in /  0 mm
05:09 36.8 °F /  2.7 °C 29.0 °F /  -1.7 °C 30.21 in /  1022.9 hPa NW 3.0 mph /  4.8 km/h 5.8 mph /  9.3 km/h 73 % 0.00 in /  0 mm
05:14 36.8 °F /  2.7 °C 29.0 °F /  -1.7 °C 30.20 in /  1022.6 hPa NW 2.9 mph /  4.7 km/h 3.5 mph /  5.6 km/h 73 % 0.00 in /  0 mm
05:19 36.8 °F /  2.7 °C 29.0 °F /  -1.7 °C 30.21 in /  1022.9 hPa WNW 1.4 mph /  2.3 km/h 5.8 mph /  9.3 km/h 73 % 0.00 in /  0 mm
05:24 36.7 °F /  2.6 °C 28.5 °F /  -1.9 °C 30.21 in /  1022.9 hPa NNE 3.9 mph /  6.3 km/h 5.0 mph /  8 km/h 72 % 0.00 in /  0 mm
05:29 36.7 °F /  2.6 °C 28.5 °F /  -1.9 °C 30.21 in /  1022.9 hPa NNW 0.5 mph /  0.8 km/h 3.5 mph /  5.6 km/h 72 % 0.00 in /  0 mm
05:34 36.7 °F /  2.6 °C 28.9 °F /  -1.7 °C 30.21 in /  1022.9 hPa North 2.6 mph /  4.2 km/h 9.2 mph /  14.8 km/h 73 % 0.00 in /  0 mm
05:39 36.7 °F /  2.6 °C 28.5 °F /  -1.9 °C 30.21 in /  1022.9 hPa NNW 4.5 mph /  7.2 km/h 7.0 mph /  11.3 km/h 72 % 0.00 in /  0 mm
05:44 36.7 °F /  2.6 °C 28.5 °F /  -1.9 °C 30.21 in /  1022.9 hPa NW 3.0 mph /  4.8 km/h 9.2 mph /  14.8 km/h 72 % 0.00 in /  0 mm
05:49 36.8 °F /  2.7 °C 28.6 °F /  -1.9 °C 30.22 in /  1023.2 hPa NNW 2.8 mph /  4.5 km/h 5.8 mph /  9.3 km/h 72 % 0.00 in /  0 mm
05:54 36.9 °F /  2.7 °C 28.7 °F /  -1.8 °C 30.22 in /  1023.2 hPa North 2.5 mph /  4 km/h 8.1 mph /  13 km/h 72 % 0.00 in /  0 mm
05:59 36.8 °F /  2.7 °C 28.6 °F /  -1.9 °C 30.23 in /  1023.6 hPa NNW 1.7 mph /  2.7 km/h 5.8 mph /  9.3 km/h 72 % 0.00 in /  0 mm
06:04 36.8 °F /  2.7 °C 28.6 °F /  -1.9 °C 30.21 in /  1022.9 hPa Calm   1.2 mph /  1.9 km/h 72 % 0.00 in /  0 mm
06:09 36.8 °F /  2.7 °C 28.6 °F /  -1.9 °C 30.21 in /  1022.9 hPa NNW 4.2 mph /  6.8 km/h 8.1 mph /  13 km/h 72 % 0.00 in /  0 mm
06:14 36.8 °F /  2.7 °C 28.6 °F /  -1.9 °C 30.21 in /  1022.9 hPa NW 4.6 mph /  7.4 km/h 4.6 mph /  7.4 km/h 72 % 0.00 in /  0 mm
06:19 36.8 °F /  2.7 °C 29.0 °F /  -1.7 °C 30.22 in /  1023.2 hPa NNW 0.9 mph /  1.4 km/h 3.5 mph /  5.6 km/h 73 % 0.00 in /  0 mm
06:24 36.7 °F /  2.6 °C 28.5 °F /  -1.9 °C 30.21 in /  1022.9 hPa NW 3.9 mph /  6.3 km/h 6.0 mph /  9.7 km/h 72 % 0.00 in /  0 mm
06:29 36.6 °F /  2.6 °C 28.8 °F /  -1.8 °C 30.22 in /  1023.2 hPa NW 3.1 mph /  5 km/h 8.1 mph /  13 km/h 73 % 0.00 in /  0 mm
06:34 36.6 °F /  2.6 °C 28.4 °F /  -2 °C 30.22 in /  1023.2 hPa NNW 0.9 mph /  1.4 km/h 4.6 mph /  7.4 km/h 72 % 0.00 in /  0 mm
06:40 36.6 °F /  2.6 °C 28.4 °F /  -2 °C 30.22 in /  1023.2 hPa North 2.7 mph /  4.3 km/h 5.8 mph /  9.3 km/h 72 % 0.00 in /  0 mm
06:45 36.6 °F /  2.6 °C 28.1 °F /  -2.2 °C 30.22 in /  1023.2 hPa North 5.4 mph /  8.7 km/h 8.1 mph /  13 km/h 71 % 0.00 in /  0 mm
06:50 36.5 °F /  2.5 °C 28.3 °F /  -2.1 °C 30.22 in /  1023.2 hPa NW 3.6 mph /  5.8 km/h 5.8 mph /  9.3 km/h 72 % 0.00 in /  0 mm
06:55 36.5 °F /  2.5 °C 28.0 °F /  -2.2 °C 30.22 in /  1023.2 hPa NNW 5.6 mph /  9 km/h 11.5 mph /  18.5 km/h 71 % 0.00 in /  0 mm
07:00 36.6 °F /  2.6 °C 28.1 °F /  -2.2 °C 30.23 in /  1023.6 hPa North 2.5 mph /  4 km/h 8.1 mph /  13 km/h 71 % 0.00 in /  0 mm
07:05 36.8 °F /  2.7 °C 27.9 °F /  -2.3 °C 30.24 in /  1023.9 hPa NNW 2.1 mph /  3.4 km/h 5.8 mph /  9.3 km/h 70 % 0.00 in /  0 mm
07:10 36.8 °F /  2.7 °C 27.9 °F /  -2.3 °C 30.24 in /  1023.9 hPa North 2.5 mph /  4 km/h 3.5 mph /  5.6 km/h 70 % 0.00 in /  0 mm
07:15 37.0 °F /  2.8 °C 27.8 °F /  -2.3 °C 30.24 in /  1023.9 hPa NNW 6.0 mph /  9.7 km/h 11.5 mph /  18.5 km/h 69 % 0.00 in /  0 mm
07:20 37.1 °F /  2.8 °C 27.9 °F /  -2.3 °C 30.25 in /  1024.3 hPa North 4.2 mph /  6.8 km/h 5.8 mph /  9.3 km/h 69 % 0.00 in /  0 mm
07:25 37.2 °F /  2.9 °C 28.0 °F /  -2.2 °C 30.24 in /  1023.9 hPa WNW 3.5 mph /  5.6 km/h 6.9 mph /  11.1 km/h 69 % 0.00 in /  0 mm
07:30 37.4 °F /  3 °C 28.2 °F /  -2.1 °C 30.25 in /  1024.3 hPa NW 3.0 mph /  4.8 km/h 8.1 mph /  13 km/h 69 % 0.00 in /  0 mm
07:35 37.5 °F /  3.1 °C 28.2 °F /  -2.1 °C 30.25 in /  1024.3 hPa NW 4.3 mph /  6.9 km/h 8.1 mph /  13 km/h 69 % 0.00 in /  0 mm
07:40 37.7 °F /  3.2 °C 28.4 °F /  -2 °C 30.25 in /  1024.3 hPa NW 2.9 mph /  4.7 km/h 5.8 mph /  9.3 km/h 69 % 0.00 in /  0 mm
07:45 37.9 °F /  3.3 °C 28.6 °F /  -1.9 °C 30.25 in /  1024.3 hPa NNW 2.8 mph /  4.5 km/h 6.0 mph /  9.7 km/h 69 % 0.00 in /  0 mm
07:50 38.2 °F /  3.4 °C 28.6 °F /  -1.9 °C 30.25 in /  1024.3 hPa NNW 4.6 mph /  7.4 km/h 9.2 mph /  14.8 km/h 68 % 0.00 in /  0 mm
07:55 38.5 °F /  3.6 °C 28.5 °F /  -1.9 °C 30.24 in /  1023.9 hPa North 5.8 mph /  9.3 km/h 8.1 mph /  13 km/h 67 % 0.00 in /  0 mm
08:00 38.7 °F /  3.7 °C 28.7 °F /  -1.8 °C 30.24 in /  1023.9 hPa NW 4.7 mph /  7.6 km/h 8.1 mph /  13 km/h 67 % 0.00 in /  0 mm
08:05 39.1 °F /  3.9 °C 28.3 °F /  -2.1 °C 30.25 in /  1024.3 hPa NNW 3.2 mph /  5.1 km/h 6.0 mph /  9.7 km/h 65 % 0.00 in /  0 mm
08:10 39.3 °F /  4.1 °C 28.9 °F /  -1.7 °C 30.25 in /  1024.3 hPa NW 3.4 mph /  5.5 km/h 5.8 mph /  9.3 km/h 66 % 0.00 in /  0 mm
08:15 39.5 °F /  4.2 °C 28.3 °F /  -2.1 °C 30.25 in /  1024.3 hPa North 3.7 mph /  6 km/h 8.1 mph /  13 km/h 64 % 0.00 in /  0 mm
08:20 39.8 °F /  4.3 °C 28.6 °F /  -1.9 °C 30.25 in /  1024.3 hPa North 3.9 mph /  6.3 km/h 6.0 mph /  9.7 km/h 64 % 0.00 in /  0 mm
08:25 40.0 °F /  4.4 °C 28.4 °F /  -2 °C 30.25 in /  1024.3 hPa North 3.4 mph /  5.5 km/h 5.8 mph /  9.3 km/h 63 % 0.00 in /  0 mm
08:30 40.4 °F /  4.7 °C 29.2 °F /  -1.6 °C 30.25 in /  1024.3 hPa NNW 4.1 mph /  6.6 km/h 9.2 mph /  14.8 km/h 64 % 0.00 in /  0 mm
08:35 40.6 °F /  4.8 °C 29.0 °F /  -1.7 °C 30.24 in /  1023.9 hPa NNW 4.1 mph /  6.6 km/h 9.2 mph /  14.8 km/h 63 % 0.00 in /  0 mm
08:40 40.8 °F /  4.9 °C 28.8 °F /  -1.8 °C 30.23 in /  1023.6 hPa NNW 4.6 mph /  7.4 km/h 8.1 mph /  13 km/h 62 % 0.00 in /  0 mm
08:45 41.1 °F /  5.1 °C 29.5 °F /  -1.4 °C 30.24 in /  1023.9 hPa NNE 4.1 mph /  6.6 km/h 5.8 mph /  9.3 km/h 63 % 0.00 in /  0 mm
08:51 41.4 °F /  5.2 °C 29.7 °F /  -1.3 °C 30.24 in /  1023.9 hPa North 3.5 mph /  5.6 km/h 5.8 mph /  9.3 km/h 63 % 0.00 in /  0 mm
08:56 41.6 °F /  5.3 °C 29.5 °F /  -1.4 °C 30.23 in /  1023.6 hPa North 1.0 mph /  1.6 km/h 2.3 mph /  3.7 km/h 62 % 0.00 in /  0 mm
09:01 41.5 °F /  5.3 °C 29.0 °F /  -1.7 °C 30.23 in /  1023.6 hPa NNE 3.2 mph /  5.1 km/h 4.6 mph /  7.4 km/h 61 % 0.00 in /  0 mm
09:06 41.8 °F /  5.4 °C 29.7 °F /  -1.3 °C 30.23 in /  1023.6 hPa NNE 2.4 mph /  3.9 km/h 4.0 mph /  6.4 km/h 62 % 0.00 in /  0 mm
09:11 42.3 °F /  5.7 °C 29.4 °F /  -1.4 °C 30.23 in /  1023.6 hPa North 5.4 mph /  8.7 km/h 8.1 mph /  13 km/h 60 % 0.00 in /  0 mm
09:16 42.4 °F /  5.8 °C 28.7 °F /  -1.8 °C 30.23 in /  1023.6 hPa NNE 4.6 mph /  7.4 km/h 7.0 mph /  11.3 km/h 58 % 0.00 in /  0 mm
09:21 42.4 °F /  5.8 °C 28.7 °F /  -1.8 °C 30.23 in /  1023.6 hPa NNE 3.6 mph /  5.8 km/h 5.8 mph /  9.3 km/h 58 % 0.00 in /  0 mm
09:26 42.7 °F /  5.9 °C 29.4 °F /  -1.4 °C 30.23 in /  1023.6 hPa NE 4.4 mph /  7.1 km/h 6.9 mph /  11.1 km/h 59 % 0.00 in /  0 mm
09:31 43.3 °F /  6.3 °C 30.7 °F /  -0.7 °C 30.22 in /  1023.2 hPa NE 2.5 mph /  4 km/h 4.6 mph /  7.4 km/h 61 % 0.00 in /  0 mm
09:36 43.6 °F /  6.4 °C 29.4 °F /  -1.4 °C 30.23 in /  1023.6 hPa NE 4.7 mph /  7.6 km/h 7.0 mph /  11.3 km/h 57 % 0.00 in /  0 mm
09:41 43.6 °F /  6.4 °C 29.4 °F /  -1.4 °C 30.24 in /  1023.9 hPa NNW 3.9 mph /  6.3 km/h 6.0 mph /  9.7 km/h 57 % 0.00 in /  0 mm
09:46 44.0 °F /  6.7 °C 30.6 °F /  -0.8 °C 30.24 in /  1023.9 hPa NNE 3.2 mph /  5.1 km/h 5.8 mph /  9.3 km/h 59 % 0.00 in /  0 mm
09:51 44.6 °F /  7 °C 30.7 °F /  -0.7 °C 30.23 in /  1023.6 hPa NE 4.9 mph /  7.9 km/h 8.1 mph /  13 km/h 58 % 0.00 in /  0 mm
09:56 45.0 °F /  7.2 °C 30.7 °F /  -0.7 °C 30.23 in /  1023.6 hPa North 3.8 mph /  6.1 km/h 4.6 mph /  7.4 km/h 57 % 0.00 in /  0 mm
10:01 45.4 °F /  7.4 °C 30.2 °F /  -1 °C 30.24 in /  1023.9 hPa NNW 3.2 mph /  5.1 km/h 8.1 mph /  13 km/h 55 % 0.00 in /  0 mm
10:06 45.5 °F /  7.5 °C 29.8 °F /  -1.2 °C 30.24 in /  1023.9 hPa NNW 5.6 mph /  9 km/h 9.2 mph /  14.8 km/h 54 % 0.00 in /  0 mm
10:11 45.6 °F /  7.6 °C 29.0 °F /  -1.7 °C 30.24 in /  1023.9 hPa North 4.2 mph /  6.8 km/h 10.4 mph /  16.7 km/h 52 % 0.00 in /  0 mm
10:16 46.0 °F /  7.8 °C 30.7 °F /  -0.7 °C 30.23 in /  1023.6 hPa North 3.5 mph /  5.6 km/h 5.8 mph /  9.3 km/h 55 % 0.00 in /  0 mm
10:22 46.2 °F /  7.9 °C 30.0 °F /  -1.1 °C 30.24 in /  1023.9 hPa NNE 5.3 mph /  8.5 km/h 7.0 mph /  11.3 km/h 53 % 0.00 in /  0 mm
10:27 46.4 °F /  8 °C 29.7 °F /  -1.3 °C 30.23 in /  1023.6 hPa East 2.8 mph /  4.5 km/h 5.0 mph /  8 km/h 52 % 0.00 in /  0 mm
10:32 47.0 °F /  8.3 °C 31.2 °F /  -0.4 °C 30.23 in /  1023.6 hPa North 5.4 mph /  8.7 km/h 6.9 mph /  11.1 km/h 54 % 0.00 in /  0 mm
10:37 47.4 °F /  8.6 °C 30.2 °F /  -1 °C 30.23 in /  1023.6 hPa NNE 3.6 mph /  5.8 km/h 4.6 mph /  7.4 km/h 51 % 0.00 in /  0 mm
10:42 47.7 °F /  8.7 °C 30.4 °F /  -0.9 °C 30.23 in /  1023.6 hPa NNE 3.9 mph /  6.3 km/h 6.0 mph /  9.7 km/h 51 % 0.00 in /  0 mm
10:47 47.6 °F /  8.7 °C 30.3 °F /  -0.9 °C 30.23 in /  1023.6 hPa ENE 4.7 mph /  7.6 km/h 6.9 mph /  11.1 km/h 51 % 0.00 in /  0 mm
10:52 47.4 °F /  8.6 °C 31.1 °F /  -0.5 °C 30.23 in /  1023.6 hPa ENE 3.3 mph /  5.3 km/h 6.9 mph /  11.1 km/h 53 % 0.00 in /  0 mm
10:57 47.6 °F /  8.7 °C 29.9 °F /  -1.2 °C 30.22 in /  1023.2 hPa NE 2.9 mph /  4.7 km/h 6.0 mph /  9.7 km/h 50 % 0.00 in /  0 mm
11:02 46.8 °F /  8.2 °C 28.6 °F /  -1.9 °C 30.23 in /  1023.6 hPa ENE 3.4 mph /  5.5 km/h 4.6 mph /  7.4 km/h 49 % 0.00 in /  0 mm
11:07 46.8 °F /  8.2 °C 29.6 °F /  -1.3 °C 30.22 in /  1023.2 hPa NE 2.3 mph /  3.7 km/h 4.6 mph /  7.4 km/h 51 % 0.00 in /  0 mm
11:12 46.8 °F /  8.2 °C 28.6 °F /  -1.9 °C 30.21 in /  1022.9 hPa ENE 1.1 mph /  1.8 km/h 3.5 mph /  5.6 km/h 49 % 0.00 in /  0 mm
11:17 47.0 °F /  8.3 °C 29.3 °F /  -1.5 °C 30.21 in /  1022.9 hPa NE 1.3 mph /  2.1 km/h 3.5 mph /  5.6 km/h 50 % 0.00 in /  0 mm
11:22 47.2 °F /  8.4 °C 28.0 °F /  -2.2 °C 30.21 in /  1022.9 hPa ENE 1.8 mph /  2.9 km/h 6.9 mph /  11.1 km/h 47 % 0.00 in /  0 mm
11:27 47.2 °F /  8.4 °C 29.5 °F /  -1.4 °C 30.21 in /  1022.9 hPa ENE 3.0 mph /  4.8 km/h 4.0 mph /  6.4 km/h 50 % 0.00 in /  0 mm
11:32 47.7 °F /  8.7 °C 30.0 °F /  -1.1 °C 30.21 in /  1022.9 hPa NNE 2.0 mph /  3.2 km/h 5.0 mph /  8 km/h 50 % 0.00 in /  0 mm
11:37 47.9 °F /  8.8 °C 29.6 °F /  -1.3 °C 30.20 in /  1022.6 hPa NE 3.0 mph /  4.8 km/h 5.0 mph /  8 km/h 49 % 0.00 in /  0 mm
11:42 47.1 °F /  8.4 °C 27.9 °F /  -2.3 °C 30.19 in /  1022.2 hPa ENE 3.0 mph /  4.8 km/h 5.0 mph /  8 km/h 47 % 0.00 in /  0 mm
11:47 46.3 °F /  7.9 °C 26.6 °F /  -3 °C 30.19 in /  1022.2 hPa East 2.0 mph /  3.2 km/h 5.0 mph /  8 km/h 46 % 0.00 in /  0 mm
11:52 46.1 °F /  7.8 °C 28.5 °F /  -1.9 °C 30.19 in /  1022.2 hPa East 2.0 mph /  3.2 km/h 5.0 mph /  8 km/h 50 % 0.00 in /  0 mm
11:57 46.2 °F /  7.9 °C 27.1 °F /  -2.7 °C 30.19 in /  1022.2 hPa NE 3.7 mph /  6 km/h 5.0 mph /  8 km/h 47 % 0.00 in /  0 mm
12:02 46.2 °F /  7.9 °C 27.6 °F /  -2.4 °C 30.19 in /  1022.2 hPa ENE 3.0 mph /  4.8 km/h 7.0 mph /  11.3 km/h 48 % 0.00 in /  0 mm
12:07 46.6 °F /  8.1 °C 28.4 °F /  -2 °C 30.20 in /  1022.6 hPa ENE 2.0 mph /  3.2 km/h 5.0 mph /  8 km/h 49 % 0.00 in /  0 mm
12:12 46.8 °F /  8.2 °C 28.1 °F /  -2.2 °C 30.19 in /  1022.2 hPa ENE 2.0 mph /  3.2 km/h 6.0 mph /  9.7 km/h 48 % 0.00 in /  0 mm
12:17 47.5 °F /  8.6 °C 29.2 °F /  -1.6 °C 30.19 in /  1022.2 hPa ENE 1.0 mph /  1.6 km/h 3.0 mph /  4.8 km/h 49 % 0.00 in /  0 mm
12:22 48.3 °F /  9.1 °C 30.5 °F /  -0.8 °C 30.20 in /  1022.6 hPa ENE 2.0 mph /  3.2 km/h 5.0 mph /  8 km/h 50 % 0.00 in /  0 mm
12:27 49.3 °F /  9.6 °C 31.5 °F /  -0.3 °C 30.19 in /  1022.2 hPa North 3.0 mph /  4.8 km/h 6.0 mph /  9.7 km/h 50 % 0.00 in /  0 mm
12:32 49.7 °F /  9.8 °C 29.2 °F /  -1.6 °C 30.20 in /  1022.6 hPa NW 1.0 mph /  1.6 km/h 6.0 mph /  9.7 km/h 45 % 0.00 in /  0 mm
12:37 50.0 °F /  10 °C 32.1 °F /  0.1 °C 30.19 in /  1022.2 hPa SSE 1.3 mph /  2.1 km/h 4.6 mph /  7.4 km/h 50 % 0.00 in /  0 mm
12:42 51.1 °F /  10.6 °C 31.6 °F /  -0.2 °C 30.19 in /  1022.2 hPa SW 0.9 mph /  1.4 km/h 4.0 mph /  6.4 km/h 47 % 0.00 in /  0 mm
12:47 51.6 °F /  10.9 °C 30.9 °F /  -0.6 °C 30.19 in /  1022.2 hPa SW 5.0 mph /  8 km/h 8.0 mph /  12.9 km/h 45 % 0.00 in /  0 mm
12:52 51.5 °F /  10.8 °C 29.7 °F /  -1.3 °C 30.19 in /  1022.2 hPa WSW 5.0 mph /  8 km/h 10.0 mph /  16.1 km/h 43 % 0.00 in /  0 mm
12:57 51.7 °F /  10.9 °C 30.5 °F /  -0.8 °C 30.18 in /  1021.9 hPa WSW 4.0 mph /  6.4 km/h 6.9 mph /  11.1 km/h 44 % 0.00 in /  0 mm
13:03 52.0 °F /  11.1 °C 29.6 °F /  -1.3 °C 30.18 in /  1021.9 hPa SW 6.4 mph /  10.3 km/h 8.1 mph /  13 km/h 42 % 0.00 in /  0 mm
13:08 51.7 °F /  10.9 °C 29.9 °F /  -1.2 °C 30.17 in /  1021.6 hPa SW 4.2 mph /  6.8 km/h 5.8 mph /  9.3 km/h 43 % 0.00 in /  0 mm
13:13 51.7 °F /  10.9 °C 28.1 °F /  -2.2 °C 30.17 in /  1021.6 hPa WSW 5.1 mph /  8.2 km/h 6.9 mph /  11.1 km/h 40 % 0.00 in /  0 mm
13:18 52.0 °F /  11.1 °C 29.0 °F /  -1.7 °C 30.17 in /  1021.6 hPa WSW 4.2 mph /  6.8 km/h 8.1 mph /  13 km/h 41 % 0.00 in /  0 mm
13:23 52.1 °F /  11.2 °C 29.1 °F /  -1.6 °C 30.18 in /  1021.9 hPa SSW 3.9 mph /  6.3 km/h 6.0 mph /  9.7 km/h 41 % 0.00 in /  0 mm
13:28 52.0 °F /  11.1 °C 28.4 °F /  -2 °C 30.17 in /  1021.6 hPa WSW 7.3 mph /  11.7 km/h 9.0 mph /  14.5 km/h 40 % 0.00 in /  0 mm
13:33 51.7 °F /  10.9 °C 29.3 °F /  -1.5 °C 30.17 in /  1021.6 hPa NW 2.7 mph /  4.3 km/h 5.8 mph /  9.3 km/h 42 % 0.00 in /  0 mm
13:38 51.7 °F /  10.9 °C 28.7 °F /  -1.8 °C 30.17 in /  1021.6 hPa SSW 2.8 mph /  4.5 km/h 6.0 mph /  9.7 km/h 41 % 0.00 in /  0 mm
13:43 51.9 °F /  11.1 °C 29.5 °F /  -1.4 °C 30.17 in /  1021.6 hPa NW 0.3 mph /  0.5 km/h 3.5 mph /  5.6 km/h 42 % 0.00 in /  0 mm
13:48 51.7 °F /  10.9 °C 27.5 °F /  -2.5 °C 30.16 in /  1021.2 hPa SSW 1.2 mph /  1.9 km/h 6.0 mph /  9.7 km/h 39 % 0.00 in /  0 mm
13:53 51.7 °F /  10.9 °C 29.3 °F /  -1.5 °C 30.16 in /  1021.2 hPa WNW 2.2 mph /  3.5 km/h 3.5 mph /  5.6 km/h 42 % 0.00 in /  0 mm
13:58 51.7 °F /  10.9 °C 27.5 °F /  -2.5 °C 30.16 in /  1021.2 hPa NNW 2.0 mph /  3.2 km/h 5.8 mph /  9.3 km/h 39 % 0.00 in /  0 mm
14:03 51.8 °F /  11 °C 28.8 °F /  -1.8 °C 30.16 in /  1021.2 hPa WNW 2.4 mph /  3.9 km/h 4.0 mph /  6.4 km/h 41 % 0.00 in /  0 mm
14:08 52.1 °F /  11.2 °C 29.1 °F /  -1.6 °C 30.16 in /  1021.2 hPa SW 3.4 mph /  5.5 km/h 5.8 mph /  9.3 km/h 41 % 0.00 in /  0 mm
14:13 52.7 °F /  11.5 °C 28.4 °F /  -2 °C 30.16 in /  1021.2 hPa SSW 2.3 mph /  3.7 km/h 6.9 mph /  11.1 km/h 39 % 0.00 in /  0 mm
14:19 53.1 °F /  11.7 °C 29.4 °F /  -1.4 °C 30.16 in /  1021.2 hPa SW 3.0 mph /  4.8 km/h 4.0 mph /  6.4 km/h 40 % 0.00 in /  0 mm
14:24 53.3 °F /  11.8 °C 29.6 °F /  -1.3 °C 30.16 in /  1021.2 hPa WNW 1.5 mph /  2.4 km/h 3.5 mph /  5.6 km/h 40 % 0.00 in /  0 mm
14:29 53.4 °F /  11.9 °C 29.7 °F /  -1.3 °C 30.16 in /  1021.2 hPa North 2.4 mph /  3.9 km/h 4.6 mph /  7.4 km/h 40 % 0.00 in /  0 mm
14:34 54.0 °F /  12.2 °C 29.6 °F /  -1.3 °C 30.16 in /  1021.2 hPa West 4.2 mph /  6.8 km/h 7.0 mph /  11.3 km/h 39 % 0.00 in /  0 mm
14:39 54.0 °F /  12.2 °C 29.6 °F /  -1.3 °C 30.16 in /  1021.2 hPa WNW 0.3 mph /  0.5 km/h 3.5 mph /  5.6 km/h 39 % 0.00 in /  0 mm
14:44 54.0 °F /  12.2 °C 29.6 °F /  -1.3 °C 30.16 in /  1021.2 hPa WSW 3.3 mph /  5.3 km/h 5.0 mph /  8 km/h 39 % 0.00 in /  0 mm
14:49 53.7 °F /  12.1 °C 28.7 °F /  -1.8 °C 30.16 in /  1021.2 hPa SSW 3.1 mph /  5 km/h 5.8 mph /  9.3 km/h 38 % 0.00 in /  0 mm
14:54 53.5 °F /  11.9 °C 29.1 °F /  -1.6 °C 30.16 in /  1021.2 hPa West 4.3 mph /  6.9 km/h 6.9 mph /  11.1 km/h 39 % 0.00 in /  0 mm
14:59 53.4 °F /  11.9 °C 28.4 °F /  -2 °C 30.16 in /  1021.2 hPa WNW 3.3 mph /  5.3 km/h 5.8 mph /  9.3 km/h 38 % 0.00 in /  0 mm
15:04 53.3 °F /  11.8 °C 27.7 °F /  -2.4 °C 30.15 in /  1020.9 hPa WSW 4.4 mph /  7.1 km/h 7.0 mph /  11.3 km/h 37 % 0.00 in /  0 mm
15:09 53.0 °F /  11.7 °C 27.4 °F /  -2.6 °C 30.15 in /  1020.9 hPa SW 3.4 mph /  5.5 km/h 5.8 mph /  9.3 km/h 37 % 0.00 in /  0 mm
15:14 52.9 °F /  11.6 °C 28.0 °F /  -2.2 °C 30.15 in /  1020.9 hPa West 2.8 mph /  4.5 km/h 6.9 mph /  11.1 km/h 38 % 0.00 in /  0 mm
15:19 53.0 °F /  11.7 °C 28.7 °F /  -1.8 °C 30.15 in /  1020.9 hPa South 2.1 mph /  3.4 km/h 3.0 mph /  4.8 km/h 39 % 0.00 in /  0 mm
15:24 53.2 °F /  11.8 °C 28.2 °F /  -2.1 °C 30.15 in /  1020.9 hPa West 1.8 mph /  2.9 km/h 5.8 mph /  9.3 km/h 38 % 0.00 in /  0 mm
15:29 53.3 °F /  11.8 °C 27.7 °F /  -2.4 °C 30.15 in /  1020.9 hPa WSW 2.9 mph /  4.7 km/h 5.8 mph /  9.3 km/h 37 % 0.00 in /  0 mm
15:34 53.2 °F /  11.8 °C 27.6 °F /  -2.4 °C 30.15 in /  1020.9 hPa WNW 2.6 mph /  4.2 km/h 5.8 mph /  9.3 km/h 37 % 0.00 in /  0 mm
15:39 52.9 °F /  11.6 °C 26.6 °F /  -3 °C 30.15 in /  1020.9 hPa WNW 1.0 mph /  1.6 km/h 4.6 mph /  7.4 km/h 36 % 0.00 in /  0 mm
15:45 52.6 °F /  11.4 °C 27.0 °F /  -2.8 °C 30.14 in /  1020.5 hPa NW 2.3 mph /  3.7 km/h 3.5 mph /  5.6 km/h 37 % 0.00 in /  0 mm
15:50 52.3 °F /  11.3 °C 27.4 °F /  -2.6 °C 30.14 in /  1020.5 hPa West 2.7 mph /  4.3 km/h 4.6 mph /  7.4 km/h 38 % 0.00 in /  0 mm
15:55 52.2 °F /  11.2 °C 28.0 °F /  -2.2 °C 30.14 in /  1020.5 hPa WNW 3.0 mph /  4.8 km/h 5.8 mph /  9.3 km/h 39 % 0.00 in /  0 mm
16:00 52.0 °F /  11.1 °C 27.8 °F /  -2.3 °C 30.14 in /  1020.5 hPa WNW 4.7 mph /  7.6 km/h 6.9 mph /  11.1 km/h 39 % 0.00 in /  0 mm
16:05 51.9 °F /  11.1 °C 28.3 °F /  -2.1 °C 30.14 in /  1020.5 hPa WNW 2.8 mph /  4.5 km/h 6.9 mph /  11.1 km/h 40 % 0.00 in /  0 mm
16:10 51.8 °F /  11 °C 27.6 °F /  -2.4 °C 30.14 in /  1020.5 hPa West 2.2 mph /  3.5 km/h 3.5 mph /  5.6 km/h 39 % 0.00 in /  0 mm
16:15 51.7 °F /  10.9 °C 27.5 °F /  -2.5 °C 30.14 in /  1020.5 hPa WNW 3.6 mph /  5.8 km/h 5.8 mph /  9.3 km/h 39 % 0.00 in /  0 mm
16:20 51.5 °F /  10.8 °C 27.3 °F /  -2.6 °C 30.13 in /  1020.2 hPa WNW 2.9 mph /  4.7 km/h 4.6 mph /  7.4 km/h 39 % 0.00 in /  0 mm
16:25 51.4 °F /  10.8 °C 27.2 °F /  -2.7 °C 30.12 in /  1019.9 hPa West 0.9 mph /  1.4 km/h 4.0 mph /  6.4 km/h 39 % 0.00 in /  0 mm
16:30 51.4 °F /  10.8 °C 27.9 °F /  -2.3 °C 30.13 in /  1020.2 hPa West 2.1 mph /  3.4 km/h 4.0 mph /  6.4 km/h 40 % 0.00 in /  0 mm
16:31 51.4 °F /  10.8 °C 28.5 °F /  -1.9 °C 30.13 in /  1020.2 hPa WSW 4.4 mph /  7.1 km/h 5.8 mph /  9.3 km/h 41 % 0.00 in /  0 mm
16:37 51.2 °F /  10.7 °C 27.1 °F /  -2.7 °C 30.12 in /  1019.9 hPa West 2.7 mph /  4.3 km/h 3.5 mph /  5.6 km/h 39 % 0.00 in /  0 mm
16:42 51.1 °F /  10.6 °C 27.6 °F /  -2.4 °C 30.11 in /  1019.5 hPa West 2.5 mph /  4 km/h 3.5 mph /  5.6 km/h 40 % 0.00 in /  0 mm
16:47 51.1 °F /  10.6 °C 28.2 °F /  -2.1 °C 30.10 in /  1019.2 hPa West 0.2 mph /  0.3 km/h 1.2 mph /  1.9 km/h 41 % 0.00 in /  0 mm
16:52 51.2 °F /  10.7 °C 29.4 °F /  -1.4 °C 30.10 in /  1019.2 hPa Calm   1.2 mph /  1.9 km/h 43 % 0.00 in /  0 mm
16:57 51.2 °F /  10.7 °C 28.9 °F /  -1.7 °C 30.10 in /  1019.2 hPa West 0.2 mph /  0.3 km/h 1.0 mph /  1.6 km/h 42 % 0.00 in /  0 mm
17:02 51.2 °F /  10.7 °C 27.1 °F /  -2.7 °C 30.09 in /  1018.8 hPa Calm     39 % 0.00 in /  0 mm
17:07 51.3 °F /  10.7 °C 27.8 °F /  -2.3 °C 30.08 in /  1018.5 hPa West 0.3 mph /  0.5 km/h 1.2 mph /  1.9 km/h 40 % 0.00 in /  0 mm
17:12 51.4 °F /  10.8 °C 27.9 °F /  -2.3 °C 30.08 in /  1018.5 hPa Calm     40 % 0.00 in /  0 mm
17:17 51.4 °F /  10.8 °C 30.7 °F /  -0.7 °C 30.09 in /  1018.8 hPa SSE 3.6 mph /  5.8 km/h 4.6 mph /  7.4 km/h 45 % 0.00 in /  0 mm
17:22 51.3 °F /  10.7 °C 31.7 °F /  -0.2 °C 30.09 in /  1018.8 hPa SE 0.7 mph /  1.1 km/h 6.0 mph /  9.7 km/h 47 % 0.00 in /  0 mm
17:27 51.2 °F /  10.7 °C 32.1 °F /  0.1 °C 30.09 in /  1018.8 hPa SE 1.0 mph /  1.6 km/h 4.0 mph /  6.4 km/h 48 % 0.00 in /  0 mm
17:32 50.8 °F /  10.4 °C 31.2 °F /  -0.4 °C 30.09 in /  1018.8 hPa SSE 3.0 mph /  4.8 km/h 12.0 mph /  19.3 km/h 47 % 0.00 in /  0 mm
17:37 50.4 °F /  10.2 °C 31.9 °F /  -0.1 °C 30.09 in /  1018.8 hPa South 3.0 mph /  4.8 km/h 8.0 mph /  12.9 km/h 49 % 0.00 in /  0 mm
17:42 50.0 °F /  10 °C 31.6 °F /  -0.2 °C 30.10 in /  1019.2 hPa South 3.0 mph /  4.8 km/h 7.0 mph /  11.3 km/h 49 % 0.00 in /  0 mm
17:47 49.5 °F /  9.7 °C 31.7 °F /  -0.2 °C 30.09 in /  1018.8 hPa SSE 2.0 mph /  3.2 km/h 7.0 mph /  11.3 km/h 50 % 0.00 in /  0 mm
17:52 49.2 °F /  9.6 °C 32.3 °F /  0.2 °C 30.09 in /  1018.8 hPa South 1.0 mph /  1.6 km/h 5.0 mph /  8 km/h 52 % 0.00 in /  0 mm
17:57 48.9 °F /  9.4 °C 32.5 °F /  0.3 °C 30.10 in /  1019.2 hPa SSW 3.7 mph /  6 km/h 5.8 mph /  9.3 km/h 53 % 0.00 in /  0 mm
18:03 48.6 °F /  9.2 °C 32.2 °F /  0.1 °C 30.10 in /  1019.2 hPa South 4.5 mph /  7.2 km/h 5.8 mph /  9.3 km/h 53 % 0.00 in /  0 mm
18:08 48.3 °F /  9.1 °C 31.9 °F /  -0.1 °C 30.10 in /  1019.2 hPa SSE 3.2 mph /  5.1 km/h 5.8 mph /  9.3 km/h 53 % 0.00 in /  0 mm
18:13 48.0 °F /  8.9 °C 32.1 °F /  0.1 °C 30.11 in /  1019.5 hPa SSW 6.5 mph /  10.5 km/h 10.4 mph /  16.7 km/h 54 % 0.00 in /  0 mm
18:18 47.6 °F /  8.7 °C 32.2 °F /  0.1 °C 30.11 in /  1019.5 hPa South 3.7 mph /  6 km/h 11.0 mph /  17.7 km/h 55 % 0.00 in /  0 mm
18:23 47.2 °F /  8.4 °C 31.8 °F /  -0.1 °C 30.11 in /  1019.5 hPa SSW 6.8 mph /  10.9 km/h 9.2 mph /  14.8 km/h 55 % 0.00 in /  0 mm
18:28 46.9 °F /  8.3 °C 32.0 °F /  0 °C 30.12 in /  1019.9 hPa SSW 4.1 mph /  6.6 km/h 6.9 mph /  11.1 km/h 56 % 0.00 in /  0 mm
18:33 46.7 °F /  8.2 °C 31.8 °F /  -0.1 °C 30.11 in /  1019.5 hPa South 5.8 mph /  9.3 km/h 11.0 mph /  17.7 km/h 56 % 0.00 in /  0 mm
18:38 46.4 °F /  8 °C 32.0 °F /  0 °C 30.11 in /  1019.5 hPa SSE 2.4 mph /  3.9 km/h 4.6 mph /  7.4 km/h 57 % 0.00 in /  0 mm
18:43 46.3 °F /  7.9 °C 32.3 °F /  0.2 °C 30.11 in /  1019.5 hPa SSW 3.3 mph /  5.3 km/h 5.8 mph /  9.3 km/h 58 % 0.00 in /  0 mm
18:48 46.0 °F /  7.8 °C 32.0 °F /  0 °C 30.11 in /  1019.5 hPa SSW 3.9 mph /  6.3 km/h 6.0 mph /  9.7 km/h 58 % 0.00 in /  0 mm
18:53 45.8 °F /  7.7 °C 32.3 °F /  0.2 °C 30.11 in /  1019.5 hPa South 3.8 mph /  6.1 km/h 7.0 mph /  11.3 km/h 59 % 0.00 in /  0 mm
18:58 45.5 °F /  7.5 °C 32.0 °F /  0 °C 30.10 in /  1019.2 hPa SSW 3.5 mph /  5.6 km/h 10.4 mph /  16.7 km/h 59 % 0.00 in /  0 mm
19:03 45.2 °F /  7.3 °C 32.1 °F /  0.1 °C 30.10 in /  1019.2 hPa South 1.5 mph /  2.4 km/h 5.8 mph /  9.3 km/h 60 % 0.00 in /  0 mm
19:08 44.9 °F /  7.2 °C 31.8 °F /  -0.1 °C 30.10 in /  1019.2 hPa SSW 4.0 mph /  6.4 km/h 6.0 mph /  9.7 km/h 60 % 0.00 in /  0 mm
19:13 44.6 °F /  7 °C 32.0 °F /  0 °C 30.10 in /  1019.2 hPa South 5.8 mph /  9.3 km/h 7.0 mph /  11.3 km/h 61 % 0.00 in /  0 mm
19:18 44.4 °F /  6.9 °C 32.2 °F /  0.1 °C 30.10 in /  1019.2 hPa South 1.2 mph /  1.9 km/h 3.0 mph /  4.8 km/h 62 % 0.00 in /  0 mm
19:23 44.3 °F /  6.8 °C 32.5 °F /  0.3 °C 30.11 in /  1019.5 hPa SSE 4.0 mph /  6.4 km/h 4.6 mph /  7.4 km/h 63 % 0.00 in /  0 mm
19:28 44.1 °F /  6.7 °C 32.7 °F /  0.4 °C 30.11 in /  1019.5 hPa South 4.2 mph /  6.8 km/h 8.1 mph /  13 km/h 64 % 0.00 in /  0 mm
19:33 44.0 °F /  6.7 °C 32.6 °F /  0.3 °C 30.10 in /  1019.2 hPa South 0.2 mph /  0.3 km/h 3.5 mph /  5.6 km/h 64 % 0.00 in /  0 mm
19:38 43.8 °F /  6.6 °C 32.4 °F /  0.2 °C 30.10 in /  1019.2 hPa SSW 2.1 mph /  3.4 km/h 6.9 mph /  11.1 km/h 64 % 0.00 in /  0 mm
19:44 43.7 °F /  6.5 °C 32.7 °F /  0.4 °C 30.09 in /  1018.8 hPa South 4.9 mph /  7.9 km/h 9.0 mph /  14.5 km/h 65 % 0.00 in /  0 mm
19:49 43.6 °F /  6.4 °C 32.6 °F /  0.3 °C 30.09 in /  1018.8 hPa SSW 5.8 mph /  9.3 km/h 9.2 mph /  14.8 km/h 65 % 0.00 in /  0 mm
19:54 43.5 °F /  6.4 °C 32.5 °F /  0.3 °C 30.09 in /  1018.8 hPa South 5.4 mph /  8.7 km/h 10.4 mph /  16.7 km/h 65 % 0.00 in /  0 mm
19:59 43.4 °F /  6.3 °C 32.8 °F /  0.4 °C 30.10 in /  1019.2 hPa South 4.9 mph /  7.9 km/h 9.0 mph /  14.5 km/h 66 % 0.00 in /  0 mm
20:04 43.2 °F /  6.2 °C 32.2 °F /  0.1 °C 30.10 in /  1019.2 hPa SSW 3.3 mph /  5.3 km/h 4.6 mph /  7.4 km/h 65 % 0.00 in /  0 mm
20:09 43.1 °F /  6.2 °C 32.1 °F /  0.1 °C 30.10 in /  1019.2 hPa South 5.6 mph /  9 km/h 8.1 mph /  13 km/h 65 % 0.00 in /  0 mm
20:14 43.1 °F /  6.2 °C 32.1 °F /  0.1 °C 30.10 in /  1019.2 hPa SSW 5.3 mph /  8.5 km/h 8.1 mph /  13 km/h 65 % 0.00 in /  0 mm
20:19 43.0 °F /  6.1 °C 31.6 °F /  -0.2 °C 30.11 in /  1019.5 hPa South 5.8 mph /  9.3 km/h 9.2 mph /  14.8 km/h 64 % 0.00 in /  0 mm
20:24 42.9 °F /  6.1 °C 31.6 °F /  -0.2 °C 30.12 in /  1019.9 hPa SSW 4.8 mph /  7.7 km/h 8.1 mph /  13 km/h 64 % 0.00 in /  0 mm
20:29 42.9 °F /  6.1 °C 31.6 °F /  -0.2 °C 30.12 in /  1019.9 hPa South 7.0 mph /  11.3 km/h 7.0 mph /  11.3 km/h 64 % 0.00 in /  0 mm
20:34 42.9 °F /  6.1 °C 31.6 °F /  -0.2 °C 30.12 in /  1019.9 hPa South 4.4 mph /  7.1 km/h 7.0 mph /  11.3 km/h 64 % 0.00 in /  0 mm
20:35 42.9 °F /  6.1 °C 31.9 °F /  -0.1 °C 30.12 in /  1019.9 hPa South 4.3 mph /  6.9 km/h 6.9 mph /  11.1 km/h 65 % 0.00 in /  0 mm
20:40 42.9 °F /  6.1 °C 31.9 °F /  -0.1 °C 30.11 in /  1019.5 hPa SSW 5.2 mph /  8.4 km/h 9.2 mph /  14.8 km/h 65 % 0.00 in /  0 mm
20:45 42.9 °F /  6.1 °C 32.3 °F /  0.2 °C 30.11 in /  1019.5 hPa South 0.4 mph /  0.6 km/h 3.5 mph /  5.6 km/h 66 % 0.00 in /  0 mm
20:50 42.8 °F /  6 °C 32.6 °F /  0.3 °C 30.11 in /  1019.5 hPa SSW 6.0 mph /  9.7 km/h 10.4 mph /  16.7 km/h 67 % 0.00 in /  0 mm
20:55 42.8 °F /  6 °C 32.6 °F /  0.3 °C 30.11 in /  1019.5 hPa South 4.8 mph /  7.7 km/h 6.9 mph /  11.1 km/h 67 % 0.00 in /  0 mm
21:00 42.8 °F /  6 °C 32.6 °F /  0.3 °C 30.11 in /  1019.5 hPa South 2.0 mph /  3.2 km/h 4.6 mph /  7.4 km/h 67 % 0.00 in /  0 mm
21:05 42.8 °F /  6 °C 32.6 °F /  0.3 °C 30.11 in /  1019.5 hPa SSW 2.7 mph /  4.3 km/h 3.5 mph /  5.6 km/h 67 % 0.00 in /  0 mm
21:10 42.7 °F /  5.9 °C 32.5 °F /  0.3 °C 30.11 in /  1019.5 hPa SW 3.5 mph /  5.6 km/h 8.1 mph /  13 km/h 67 % 0.00 in /  0 mm
21:15 42.7 °F /  5.9 °C 32.5 °F /  0.3 °C 30.11 in /  1019.5 hPa SSE 1.8 mph /  2.9 km/h 3.5 mph /  5.6 km/h 67 % 0.00 in /  0 mm
21:20 42.7 °F /  5.9 °C 32.5 °F /  0.3 °C 30.11 in /  1019.5 hPa WSW 3.1 mph /  5 km/h 5.8 mph /  9.3 km/h 67 % 0.00 in /  0 mm
21:25 42.7 °F /  5.9 °C 32.5 °F /  0.3 °C 30.11 in /  1019.5 hPa SW 2.1 mph /  3.4 km/h 5.0 mph /  8 km/h 67 % 0.00 in /  0 mm
21:30 42.7 °F /  5.9 °C 32.9 °F /  0.5 °C 30.11 in /  1019.5 hPa SSE 3.2 mph /  5.1 km/h 4.6 mph /  7.4 km/h 68 % 0.00 in /  0 mm
21:35 42.7 °F /  5.9 °C 32.9 °F /  0.5 °C 30.11 in /  1019.5 hPa South 0.6 mph /  1 km/h 3.5 mph /  5.6 km/h 68 % 0.00 in /  0 mm
21:40 42.7 °F /  5.9 °C 32.9 °F /  0.5 °C 30.11 in /  1019.5 hPa WSW 5.7 mph /  9.2 km/h 8.1 mph /  13 km/h 68 % 0.00 in /  0 mm
21:45 42.7 °F /  5.9 °C 32.9 °F /  0.5 °C 30.11 in /  1019.5 hPa SW 1.6 mph /  2.6 km/h 3.5 mph /  5.6 km/h 68 % 0.00 in /  0 mm
21:50 42.6 °F /  5.9 °C 33.1 °F /  0.6 °C 30.12 in /  1019.9 hPa SW 1.1 mph /  1.8 km/h 4.0 mph /  6.4 km/h 69 % 0.00 in /  0 mm
21:55 42.7 °F /  5.9 °C 33.2 °F /  0.7 °C 30.12 in /  1019.9 hPa South 2.9 mph /  4.7 km/h 5.8 mph /  9.3 km/h 69 % 0.00 in /  0 mm
22:00 42.7 °F /  5.9 °C 33.2 °F /  0.7 °C 30.12 in /  1019.9 hPa SSW 2.3 mph /  3.7 km/h 5.0 mph /  8 km/h 69 % 0.00 in /  0 mm
22:06 42.6 °F /  5.9 °C 33.5 °F /  0.8 °C 30.11 in /  1019.5 hPa SSW 1.7 mph /  2.7 km/h 3.5 mph /  5.6 km/h 70 % 0.00 in /  0 mm
22:11 42.6 °F /  5.9 °C 33.5 °F /  0.8 °C 30.12 in /  1019.9 hPa SW 1.6 mph /  2.6 km/h 3.5 mph /  5.6 km/h 70 % 0.00 in /  0 mm
22:16 42.6 °F /  5.9 °C 33.5 °F /  0.8 °C 30.12 in /  1019.9 hPa Calm   1.2 mph /  1.9 km/h 70 % 0.00 in /  0 mm
22:21 42.6 °F /  5.9 °C 33.9 °F /  1.1 °C 30.12 in /  1019.9 hPa WSW 2.3 mph /  3.7 km/h 3.5 mph /  5.6 km/h 71 % 0.00 in /  0 mm
22:26 42.5 °F /  5.8 °C 33.8 °F /  1 °C 30.12 in /  1019.9 hPa SW 2.5 mph /  4 km/h 3.5 mph /  5.6 km/h 71 % 0.00 in /  0 mm
22:31 42.5 °F /  5.8 °C 33.4 °F /  0.8 °C 30.14 in /  1020.5 hPa WSW 0.8 mph /  1.3 km/h 3.5 mph /  5.6 km/h 70 % 0.00 in /  0 mm
22:36 42.5 °F /  5.8 °C 33.4 °F /  0.8 °C 30.15 in /  1020.9 hPa West 1.4 mph /  2.3 km/h 3.5 mph /  5.6 km/h 70 % 0.00 in /  0 mm
22:41 42.5 °F /  5.8 °C 33.4 °F /  0.8 °C 30.15 in /  1020.9 hPa SW 2.0 mph /  3.2 km/h 3.5 mph /  5.6 km/h 70 % 0.00 in /  0 mm
22:46 42.5 °F /  5.8 °C 33.4 °F /  0.8 °C 30.15 in /  1020.9 hPa SW 1.6 mph /  2.6 km/h 3.5 mph /  5.6 km/h 70 % 0.00 in /  0 mm
22:51 42.6 °F /  5.9 °C 33.5 °F /  0.8 °C 30.15 in /  1020.9 hPa SW 1.2 mph /  1.9 km/h 3.5 mph /  5.6 km/h 70 % 0.00 in /  0 mm
22:56 42.5 °F /  5.8 °C 33.4 °F /  0.8 °C 30.14 in /  1020.5 hPa Calm   1.2 mph /  1.9 km/h 70 % 0.00 in /  0 mm
23:01 42.5 °F /  5.8 °C 33.4 °F /  0.8 °C 30.13 in /  1020.2 hPa SW 1.0 mph /  1.6 km/h 3.5 mph /  5.6 km/h 70 % 0.00 in /  0 mm
23:06 42.6 °F /  5.9 °C 33.5 °F /  0.8 °C 30.13 in /  1020.2 hPa South 0.8 mph /  1.3 km/h 3.5 mph /  5.6 km/h 70 % 0.00 in /  0 mm
23:11 42.6 °F /  5.9 °C 33.5 °F /  0.8 °C 30.13 in /  1020.2 hPa Calm   1.2 mph /  1.9 km/h 70 % 0.00 in /  0 mm
23:16 42.6 °F /  5.9 °C 33.9 °F /  1.1 °C 30.14 in /  1020.5 hPa Calm     71 % 0.00 in /  0 mm
23:21 42.6 °F /  5.9 °C 34.2 °F /  1.2 °C 30.14 in /  1020.5 hPa Calm     72 % 0.00 in /  0 mm
23:26 42.6 °F /  5.9 °C 34.2 °F /  1.2 °C 30.13 in /  1020.2 hPa Calm   2.3 mph /  3.7 km/h 72 % 0.00 in /  0 mm
23:31 42.5 °F /  5.8 °C 34.5 °F /  1.4 °C 30.13 in /  1020.2 hPa Calm   1.2 mph /  1.9 km/h 73 % 0.00 in /  0 mm
23:36 42.5 °F /  5.8 °C 34.5 °F /  1.4 °C 30.12 in /  1019.9 hPa SSE 0.6 mph /  1 km/h 2.3 mph /  3.7 km/h 73 % 0.00 in /  0 mm
23:41 42.4 °F /  5.8 °C 34.7 °F /  1.5 °C 30.14 in /  1020.5 hPa SSE 1.3 mph /  2.1 km/h 2.3 mph /  3.7 km/h 74 % 0.00 in /  0 mm
23:46 42.3 °F /  5.7 °C 34.9 °F /  1.6 °C 30.14 in /  1020.5 hPa SSE 0.7 mph /  1.1 km/h 2.3 mph /  3.7 km/h 75 % 0.00 in /  0 mm
23:51 42.3 °F /  5.7 °C 35.6 °F /  2 °C 30.12 in /  1019.9 hPa SSE 0.7 mph /  1.1 km/h 2.3 mph /  3.7 km/h 77 % 0.00 in /  0 mm
23:56 42.1 °F /  5.6 °C 35.7 °F /  2.1 °C 30.11 in /  1019.5 hPa SSE 0.8 mph /  1.3 km/h 2.3 mph /  3.7 km/h 78 % 0.00 in /  0 mm
Crab Meadow Weather
Compliments of Weather Underground - 3 mb

Script developed by  Jim McMurry - jmcmurry@mwt.net Adapted for the template by  Wim van der Kuil - Leuven-Template.eu

Astronomy: A year on Venus is 225 days.